Location: Codford Saint Peter
(51.1597°N, 2.0531°W)
Time: 13:02:32
(UTC+00:00)

Cosmos 1092 Rocket - Pass Details

Date: 18 September 2020
Orbit: 954 x 995 km, 82.9° (Epoch: 22 October)

Event Time Altitude Azimuth Distance (km) Brightness Sun altitude
Rises 19:47:31 0° 352° (N) 3,646 7.4 -15.0°
Reaches altitude 10° 19:50:06 10° 357° (N) 2,697 6.6 -15.4°
Maximum altitude 19:56:08 54° 74° (ENE) 1,152 4.1 -16.2°
Enters shadow 20:00:16 21° 145° (SE) 2,032 5.2 -16.8°
